Regional Weather Roundup
Issued by NWS Glasgow, MT

Home | Current Version | Previous Version | Text Only | Print | Product List | Glossary On
Versions: 1 2 3 4 5 6 7 8 9 10 11 12 13 14 15 16 17 18 19 20 21 22 23 24 25 26 27 28 29 30 31 32 33 34 35 36 37 38 39 40 41 42 43 44 45 46 47 48 49 50
000
ASUS45 KGGW 051915
RWRGGW
HOURLY WEATHER ROUNDUP FOR NORTHEAST MONTANA
NATIONAL WEATHER SERVICE GLASGOW MONTANA
1200 PM MST THU MAR 05 2015

NOTE: "FAIR" INDICATES FEW OR NO CLOUDS BELOW 12,000 FEET WITH NO
SIGNIFICANT WEATHER AND/OR OBSTRUCTIONS TO VISISBILITY.

NORTHEAST MONTANA


CITY           SKY/WX    TMP DP  RH WIND       PRES   REMARKS
GLASGOW        SUNNY     40  11  30 W10       30.08S
PLENTYWOOD       N/A     33   9  36 W3G12       N/A
WOLF POINT     SUNNY     42  13  30 W14       30.07F
JORDAN         NOT AVBL
WINNETT          N/A     47   9  21 W15G26      N/A
SIDNEY         SUNNY     37  10  32 W14       30.10S
GLENDIVE       SUNNY     39  12  33 W17G24    30.09R
MALTA            N/A     44  18  35 W14G22      N/A
SCOBEY           N/A     37   9  31 W18       29.99F

FORT PECK REPORTS


CITY           SKY/WX    TMP DP  RH WIND       PRES   REMARKS
FORT PECK        N/A     42  15  33 W5G18       N/A
THE PINES        N/A     43  12  28 W9G17       N/A

SOUTHEAST MONTANA


CITY           SKY/WX    TMP DP  RH WIND       PRES   REMARKS
BILLINGS       MOSUNNY   41  13  31 SW14      30.14F
MILES CITY     SUNNY     45  15  30 MISG      30.11S
BAKER          NOT AVBL
LIVINGSTON     MOSUNNY   46  11  24 W25G39    30.15F

CENTRAL MONTANA


CITY           SKY/WX    TMP DP  RH WIND       PRES   REMARKS
HAVRE          MOSUNNY   46  16  30 SW22G28   30.07F
LEWISTOWN      SUNNY     41  17  38 W18       30.12S
GREAT FALLS    SUNNY     49   8  19 W23G32    30.10F
CUT BANK       CLOUDY    42  12  29 W33G40    30.07S
HELENA         PTSUNNY   45   2  17 W15       30.21S
BUTTE          PTSUNNY   40   4  22 W8        30.23F
BOZEMAN        SUNNY     41  10  28 N3        30.23F

WESTERN MONTANA


CITY           SKY/WX    TMP DP  RH WIND       PRES   REMARKS
MISSOULA       SUNNY     37  14  38 CALM      30.32F
KALISPELL      NOT AVBL

NORTH DAKOTA


CITY           SKY/WX    TMP DP  RH WIND       PRES   REMARKS
WILLISTON      SUNNY     29  10  45 W10       30.06S
DICKINSON      SUNNY     39  10  30 NW16G23   30.01F
MINOT          SUNNY     20   7  57 S8        30.05S
BISMARCK       SUNNY     30   6  36 S14       30.11F

SOUTHERN SASKATCHEWAN


CITY           SKY/WX    TMP DP  RH WIND       PRES   REMARKS
REGINA         MOSUNNY   12   5  73 S8        29.96F
MOOSE JAW      MOSUNNY   28  18  64 W18G24    29.97S
ESTEVAN        MOSUNNY   19   9  63 SW12      30.02S
SWIFT CURRENT  PTSUNNY   36  21  55 W15       29.96F



USA.gov is the U.S. government's official web portal to all federal, state and local government web resources and services.